Wind_Speed
15 11 10 14 6 6 10 11 16 14 14 13 23 18 21 15 7 4 13 12 24 20 19 17 16 15 15 15 14 13 12 11 10 9 8 7 5 4 3 4 4 4 4 4 5 5 6 6 7
11 16 16 6 8 6 4 11 18 12 14 12 22 19 8 17 14 18 16 17 24 18 18 16 16 14 13 14 14 13 11 10 9 8 6 5 3 2 2 2 3 3 4 4 5 5 6 6 7
15 14 7 7 14 5 3 15 28 9 7 13 18 16 7 12 16 17 19 21 22 20 17 16 16 14 13 13 13 13 11 10 8 7 5 4 3 2 1 1 2 3 4 5 5 6 6 8 8
10 10 7 9 11 9 10 14 34 10 7 12 21 16 20 17 19 20 21 19 18 20 16 16 15 14 13 13 13 12 11 10 8 6 5 4 2 1 1 1 2 2 3 4 5 5 6 7 8
15 8 11 17 13 23 19 28 16 9 13 10 20 20 17 19 22 22 19 17 18 24 17 17 15 14 13 12 12 11 10 8 7 6 5 4 3 2 2 1 1 3 4 5 5 6 7 8 10
9 12 15 17 7 13 4 10 11 9 14 15 18 19 16 18 20 18 16 15 17 24 18 16 15 14 13 12 11 10 8 7 6 5 5 4 3 3 2 2 2 3 3 4 5 7 9 11 13
12 12 18 23 2 5 16 31 19 13 11 9 14 20 14 16 18 17 16 14 18 19 18 14 14 14 13 11 10 9 8 6 5 5 4 5 5 4 3 2 2 2 4 5 7 10 12 15 19
12 13 22 23 14 8 13 35 13 21 7 8 6 10 15 21 19 16 17 14 14 18 17 14 14 12 12 12 11 9 8 6 5 4 4 5 4 3 3 2 1 4 7 10 14 15 16 18 24
19 13 15 23 4 10 19 8 31 33 12 8 14 20 21 23 20 18 14 14 16 14 18 18 16 14 13 12 11 10 8 6 4 3 3 4 5 3 5 3 7 9 9 12 17 15 15 22 23
17 13 23 12 2 18 3 14 32 6 12 14 18 25 25 22 18 19 16 16 16 14 16 20 20 18 18 17 11 9 7 6 4 5 1 4 4 2 2 8 10 10 11 14 16 14 22 19 18
18 17 21 15 3 11 17 16 7 26 16 10 21 22 19 20 15 17 18 19 17 14 14 18 14 15 17 19 13 15 9 12 8 5 5 3 0 2 4 7 10 10 15 12 17 18 19 22 25
20 20 20 21 8 7 14 13 13 21 20 24 32 29 17 15 12 15 15 17 17 15 14 17 17 14 3 20 12 16 14 11 8 11 5 0 2 2 2 7 9 11 12 15 16 17 21 22 22
19 20 20 16 9 8 16 14 11 27 22 30 34 23 16 13 12 13 13 15 20 19 17 19 20 17 7 9 9 10 9 9 12 6 4 5 1 7 5 7 7 10 12 13 16 21 20 24 23
16 18 17 22 12 11 14 15 12 20 18 21 31 26 17 16 13 13 12 15 18 23 23 22 23 21 11 9 6 7 7 6 7 7 4 2 3 8 3 5 8 9 11 15 19 18 20 22 22
14 14 13 19 12 18 13 14 16 14 30 37 13 12 17 16 21 16 18 15 18 22 24 23 24 21 14 13 9 9 10 7 8 7 6 2 2 6 7 7 8 10 14 20 18 18 20 18 22
13 13 15 17 18 17 14 16 18 14 7 13 14 14 14 17 18 23 20 20 19 20 25 21 19 21 20 15 13 11 10 8 8 4 3 3 4 6 6 8 9 13 17 16 17 18 19 20 20
14 13 19 20 19 11 11 16 21 16 11 9 7 14 14 12 15 25 27 29 23 19 25 22 16 22 21 18 13 11 9 8 6 5 2 2 5 8 11 9 9 15 14 13 15 19 17 20 19
16 18 13 15 13 11 15 14 19 3 10 13 12 9 10 16 13 9 29 31 27 27 21 22 20 15 20 18 14 9 5 5 5 5 3 4 4 8 12 8 11 11 11 13 16 13 16 18 18
21 15 12 15 12 12 14 10 14 12 11 8 11 12 10 19 16 40 46 47 17 11 15 20 21 20 14 16 12 9 7 4 4 1 1 4 8 9 9 9 10 9 12 12 11 14 15 17 19
17 11 16 15 6 8 8 12 14 12 10 10 8 13 15 19 19 31 22 25 9 25 18 15 16 14 11 13 11 4 6 6 6 7 1 6 9 6 6 8 9 11 12 11 14 13 13 14 17
11 13 15 16 13 9 7 13 17 19 13 3 3 10 14 18 14 13 20 11 25 25 20 19 17 13 13 10 7 7 7 6 5 2 4 3 3 9 5 7 8 9 10 11 12 9 10 11 16
14 16 15 16 15 12 16 13 16 19 14 10 6 9 11 11 18 16 14 13 18 18 16 17 16 15 12 7 4 2 4 5 2 3 3 7 4 3 4 5 8 8 10 12 12 12 12 11 11
16 15 13 16 15 15 19 11 12 11 16 13 13 9 6 10 15 15 14 15 14 14 16 18 17 15 11 10 10 7 4 6 1 4 6 10 9 4 4 4 8 8 10 13 14 15 14 13 10
15 11 13 8 11 13 17 16 16 11 14 15 13 10 8 10 13 14 16 16 15 15 16 14 13 12 10 9 6 9 7 6 6 7 9 9 10 8 8 6 10 9 11 13 15 17 15 14 13
15 10 8 11 11 13 17 17 14 12 22 21 18 14 12 11 12 12 11 14 14 14 13 12 11 11 10 10 10 7 5 5 4 7 8 10 10 10 9 13 11 13 15 14 14 15 15 17 17
17 15 11 11 11 8 14 15 9 15 18 20 18 16 15 14 13 12 13 14 14 13 12 12 11 11 10 9 8 7 6 5 5 7 8 11 12 14 17 13 15 14 16 14 16 16 16 18 18
17 15 19 17 17 13 4 9 11 14 14 18 19 16 16 14 13 13 15 15 14 13 12 12 12 10 9 7 6 5 4 5 6 7 9 11 12 14 15 15 15 16 16 13 16 15 18 21 20
20 16 14 10 12 14 12 14 10 18 16 16 17 16 15 14 15 13 15 16 14 13 11 11 10 9 8 6 5 4 4 4 5 6 9 11 13 14 16 16 16 14 15 15 15 14 20 23 18
13 16 15 10 10 10 10 3 11 12 11 14 16 18 15 15 15 13 16 16 15 13 12 10 9 8 7 5 4 3 4 4 5 7 9 11 13 15 16 16 16 15 15 15 17 19 16 23 24
19 19 19 9 13 10 9 2 1 14 15 16 15 20 19 16 14 13 16 15 14 13 11 9 7 6 6 4 3 3 3 4 5 6 9 11 13 15 17 18 18 18 18 20 15 19 21 23 25
Wind_Direction
290 278 253 262 255 58 356 310 82 104 97 85 62 44 76 53 119 165 162 133 119 126 139 139 140 140 140 147 151 154 157 154 150 144 143 140 131 120 104 86 71 59 48 35 25 15 8 4 357
285 286 254 278 255 111 275 298 80 77 94 107 91 76 29 76 85 128 137 135 123 132 136 146 144 143 141 148 154 158 160 160 163 162 166 160 159 148 105 64 46 28 16 15 11 6 0 356 348
290 271 275 228 239 102 204 84 273 107 151 117 101 79 107 105 126 138 137 136 124 139 140 151 149 148 148 151 157 162 169 173 179 186 195 193 191 181 147 28 7 5 5 6 2 354 349 342 338
280 263 237 244 266 95 125 236 246 153 92 92 108 89 79 116 126 131 143 138 144 141 136 149 151 155 157 160 165 170 180 187 195 204 210 211 217 222 252 329 344 2 357 344 341 334 334 331 334
258 273 268 262 277 152 161 228 173 226 125 100 104 103 100 93 111 135 141 142 153 133 141 155 157 160 163 169 173 181 186 194 201 213 219 219 220 224 235 264 332 340 339 337 340 339 337 331 325
276 262 280 275 57 307 183 173 115 104 83 114 110 107 102 117 129 137 146 151 139 121 130 158 160 164 168 172 177 183 188 196 198 208 212 218 227 230 221 243 301 323 337 339 333 328 327 322 315
258 284 285 291 157 29 327 307 88 7 130 103 129 111 124 138 136 148 155 144 132 127 139 151 161 169 171 175 179 183 186 186 193 206 220 227 230 224 226 253 276 301 315 324 322 320 320 319 314
255 274 286 279 125 165 206 254 124 109 316 86 138 141 144 120 145 153 134 146 148 146 141 156 163 167 174 182 180 181 180 184 201 210 224 225 214 208 193 206 258 313 313 318 317 314 317 324 321
267 271 269 278 127 183 231 227 304 162 153 164 80 105 115 136 147 151 141 164 143 165 143 159 166 169 174 172 181 178 180 180 170 153 178 195 195 210 208 201 293 314 312 334 332 324 323 321 315
248 254 260 336 252 142 150 192 224 150 138 138 107 113 125 144 152 149 162 167 153 175 156 161 167 165 185 160 168 157 172 158 150 171 284 299 249 180 236 275 297 313 317 324 332 327 323 320 324
244 248 272 288 329 342 195 215 100 272 40 21 325 137 144 149 164 158 168 164 165 170 161 156 161 155 177 157 149 173 178 184 168 164 203 353 349 25 306 344 351 343 333 337 327 324 327 316 322
257 256 267 277 63 302 289 310 167 154 116 103 279 264 153 159 167 162 168 165 162 150 157 157 148 164 77 141 150 170 164 155 190 175 158 200 306 330 267 327 302 322 326 326 324 323 312 315 308
246 264 266 276 284 273 295 299 302 139 135 174 218 255 150 176 172 162 162 161 146 141 148 158 153 173 185 115 154 146 145 164 157 159 180 229 191 274 271 282 311 313 319 320 308 313 315 312 313
250 244 267 269 271 243 259 276 280 99 35 282 200 224 164 173 175 156 164 153 147 149 152 157 154 170 178 153 141 166 158 161 151 176 168 277 195 258 270 295 299 320 307 296 316 314 314 315 313
269 271 278 250 259 259 258 258 263 161 188 218 157 165 163 175 181 175 171 170 161 151 157 154 155 162 170 169 177 169 203 203 193 207 224 231 285 314 313 328 329 323 310 326 323 320 317 321 326
262 255 259 245 230 251 245 259 247 228 175 199 196 179 184 182 187 175 171 170 170 160 162 158 166 169 165 174 188 197 213 196 193 187 199 167 304 321 335 336 333 302 328 334 324 327 335 331 326
234 243 236 257 200 221 205 257 265 229 208 210 241 222 189 191 191 183 168 165 173 180 159 167 180 169 177 176 186 194 189 174 179 168 164 103 342 343 339 345 326 329 343 333 337 333 332 330 328
234 217 252 251 169 192 220 232 264 250 186 215 219 267 231 189 202 306 165 164 166 178 174 173 183 198 175 174 180 185 165 169 154 162 163 30 329 348 337 343 340 338 338 339 339 336 332 326 325
271 303 268 250 180 178 243 229 256 254 216 243 244 239 356 40 43 50 355 8 75 148 150 162 177 183 149 155 165 146 137 158 173 220 206 288 330 328 341 348 344 346 346 341 345 344 336 323 322
258 279 283 294 192 165 237 274 268 251 270 191 239 46 46 80 84 105 258 194 158 74 84 71 90 117 85 111 108 114 182 191 216 199 305 292 314 350 336 345 350 349 344 344 342 331 321 322 342
267 266 261 275 281 172 213 263 274 262 237 179 56 37 55 113 118 136 165 234 73 72 74 80 86 89 73 87 120 148 162 176 205 199 247 338 304 325 345 347 352 348 339 330 323 325 333 322 333
241 245 256 268 264 265 200 247 238 239 201 205 120 68 38 87 146 148 127 90 77 77 76 77 85 85 77 86 97 192 72 56 70 17 319 322 318 302 309 342 348 344 342 333 324 323 317 319 305
256 260 284 232 262 271 271 271 259 272 164 165 101 82 61 65 90 94 93 95 97 95 84 82 80 84 82 74 79 69 43 50 43 17 333 311 298 246 292 325 343 335 334 329 326 324 315 316 297
249 242 265 286 255 251 250 266 264 177 178 123 111 118 124 97 93 95 98 98 99 99 92 80 75 73 75 75 76 71 65 41 19 4 336 352 335 352 342 347 334 317 325 321 327 324 323 324 319
227 224 241 233 233 242 238 235 253 108 130 135 141 144 134 125 114 115 119 113 110 108 104 105 103 102 99 92 84 76 65 47 25 12 347 338 334 333 339 343 330 320 320 317 309 316 319 328 317
211 225 238 235 223 253 253 233 208 125 114 133 143 146 141 146 136 135 126 130 124 119 113 116 120 119 110 99 87 68 47 42 16 5 349 333 340 330 334 329 324 316 315 317 315 314 320 324 320
197 218 245 267 286 288 235 76 115 123 138 138 142 152 150 137 133 134 132 123 126 128 128 127 122 118 116 113 108 88 60 32 16 354 349 346 337 330 325 326 322 316 314 312 308 314 319 313 313
250 214 221 238 259 275 254 185 223 162 156 156 157 155 144 138 143 137 138 131 132 129 128 129 129 125 116 107 95 73 60 31 10 357 350 350 345 338 330 328 324 317 311 300 303 309 312 313 311
216 243 254 237 236 237 273 154 93 136 179 170 167 151 151 154 144 148 137 138 135 143 138 135 133 131 124 112 94 67 33 16 6 0 352 348 347 345 337 330 326 324 330 339 336 325 338 340 332
236 218 232 243 239 260 278 187 262 188 188 178 191 154 152 154 146 144 142 143 148 139 138 132 128 127 108 104 82 54 25 3 353 345 349 347 348 346 344 343 337 337 347 339 357 2 349 338 327
Height
780 780 781 776 797 792 805 798 740 753 757 744 748 760 769 770 793 823 790 792 796 802 806 808 811 813 815 817 820 823 826 828 831 832 834 835 836 836 837 837 837 838 838 838 838 838 838 837 837
780 780 777 773 794 821 842 780 759 754 745 741 753 769 777 784 772 783 790 792 797 804 808 810 812 814 817 819 821 824 827 830 831 833 835 835 837 838 838 838 838 839 839 839 839 839 839 838 838
779 779 779 775 776 801 818 809 799 751 738 738 752 753 763 781 777 783 790 793 798 806 809 810 813 816 819 821 823 825 828 830 832 834 836 836 838 838 839 839 840 840 840 840 840 839 839 838 838
778 768 768 781 772 789 802 792 778 751 740 736 745 770 764 771 776 786 790 794 799 804 808 812 814 817 820 822 825 826 829 831 833 835 836 837 838 839 840 840 841 841 841 841 840 840 839 839 838
776 770 780 774 760 778 778 763 763 789 743 741 744 772 775 775 780 786 790 793 795 800 806 812 815 818 821 823 825 828 830 832 834 836 837 838 839 840 840 841 841 841 841 841 840 840 839 839 838
779 767 787 776 762 756 738 731 736 741 743 742 750 762 772 776 782 787 789 791 795 801 807 811 815 818 821 823 826 829 831 833 835 837 838 839 840 840 841 841 841 841 841 840 840 840 839 838 837
783 779 780 763 767 766 767 751 741 762 749 748 741 767 770 772 781 785 787 791 795 801 808 812 815 818 821 824 827 830 832 834 835 837 838 839 839 840 841 841 842 841 841 841 840 839 838 836 834
769 771 779 756 775 805 794 765 762 773 763 737 737 764 772 770 779 783 786 792 795 800 807 813 817 819 821 824 827 830 833 834 836 837 838 838 839 839 840 841 841 840 840 839 837 836 835 834 831
759 783 784 760 765 781 767 751 749 743 755 742 742 750 761 771 777 781 788 791 795 800 805 811 816 819 822 825 827 830 832 834 835 836 837 838 838 838 839 840 839 838 838 836 835 834 833 831 829
768 780 768 745 745 766 760 764 791 741 751 746 749 754 764 770 774 778 784 788 793 797 801 806 811 815 818 822 826 829 831 833 834 835 837 838 839 839 839 838 837 837 836 834 834 833 831 828 827
760 773 751 744 734 731 745 737 755 781 797 792 791 756 763 766 770 772 777 783 788 794 798 802 808 812 815 817 823 826 829 832 834 835 836 837 837 838 838 837 837 837 835 834 832 831 830 827 825
766 750 746 740 735 739 741 726 748 771 783 777 790 774 762 763 767 768 773 778 783 789 795 801 806 812 816 817 820 824 827 830 831 833 835 836 836 836 835 837 835 835 834 832 831 828 826 824 821
759 751 742 735 734 740 734 737 737 771 745 751 769 768 757 761 764 765 769 773 778 786 792 797 802 810 814 817 820 823 825 829 830 831 832 833 835 834 835 834 834 833 832 830 827 826 824 822 820
746 746 746 738 737 736 746 742 738 772 768 764 761 762 751 755 760 763 767 770 775 780 787 793 799 806 812 816 819 822 825 827 830 830 830 832 833 832 833 832 832 832 829 827 826 823 821 819 817
744 758 749 745 740 743 735 753 750 738 747 761 737 741 743 749 752 758 765 770 775 780 785 791 795 803 810 815 818 821 824 826 827 827 829 832 833 833 833 833 832 830 828 827 826 823 820 815 813
760 758 776 745 740 739 744 771 741 727 734 747 735 736 739 741 746 752 763 773 778 782 786 790 794 798 805 811 816 820 822 824 825 826 827 831 833 831 831 832 830 825 824 825 825 822 820 814 811
764 783 769 753 730 739 748 765 735 721 728 734 733 735 734 739 745 745 751 762 774 780 782 789 795 797 799 806 812 817 819 822 824 826 829 830 833 833 831 831 829 825 824 823 822 820 819 815 811
773 768 758 754 739 740 751 755 737 720 726 731 731 731 730 735 740 735 738 754 771 779 782 787 794 797 798 803 810 816 819 822 824 825 828 829 831 832 830 830 827 826 823 822 821 820 818 816 811
749 754 752 738 724 742 750 749 741 727 727 732 732 734 737 747 755 753 768 763 771 783 783 786 790 795 799 801 810 813 819 824 825 828 828 829 831 830 830 828 827 825 823 821 821 821 818 815 811
753 761 759 737 724 739 748 752 736 727 728 727 732 740 750 768 761 754 787 784 777 781 784 791 794 795 797 802 808 816 820 823 826 826 827 828 828 829 830 828 826 824 823 822 821 820 817 815 811
763 769 764 760 738 736 752 766 752 731 725 726 730 739 750 769 771 776 782 804 789 791 794 794 797 798 800 806 812 817 820 823 825 826 827 828 828 828 827 827 825 824 823 821 820 818 816 813 811
777 751 754 756 760 776 743 787 750 735 733 733 737 746 759 759 775 780 790 794 790 793 796 800 799 799 804 809 814 817 820 823 825 826 826 827 826 826 826 825 824 823 822 820 818 816 814 812 810
765 744 750 752 762 763 758 768 747 724 743 744 749 758 766 766 770 780 787 792 796 798 800 800 800 803 808 812 815 819 821 824 825 826 826 825 824 824 823 823 823 821 820 819 817 815 812 810 808
742 751 757 754 763 789 766 766 755 742 738 746 756 763 770 772 777 783 789 792 796 799 802 804 807 811 814 817 819 821 824 825 825 825 825 824 824 823 822 822 822 820 818 817 814 813 811 808 805
749 764 797 800 793 792 750 762 749 728 732 744 758 765 769 774 779 784 789 793 797 801 806 810 813 816 819 820 822 824 826 826 826 826 826 825 823 823 821 819 819 819 816 814 812 810 807 805 803
752 760 785 804 789 773 741 761 744 725 729 738 749 758 766 773 776 783 789 795 800 806 810 814 817 819 821 823 824 826 827 827 827 827 827 825 825 824 821 819 817 816 814 812 810 808 805 803 800
749 766 747 768 755 769 758 748 739 738 744 746 755 760 762 769 777 785 792 799 805 809 813 816 819 821 823 824 825 826 827 828 827 828 827 825 824 822 821 818 815 814 812 810 808 806 803 800 797
733 730 767 762 795 799 759 756 760 750 754 752 760 762 763 770 779 787 794 800 806 811 815 818 820 822 824 825 826 827 827 827 828 827 827 826 824 822 819 817 814 812 809 807 804 803 800 797 795
744 750 744 746 755 784 786 769 737 743 744 748 749 756 766 771 779 787 794 801 807 812 816 819 821 823 824 825 826 827 827 827 828 827 826 826 824 820 818 816 813 810 806 805 803 800 798 795 792
722 735 741 763 772 756 761 769 723 728 729 734 739 744 757 766 777 786 794 801 806 810 815 819 821 823 824 826 826 827 827 827 827 827 826 825 823 821 818 815 812 809 806 804 801 799 798 795 791